Regional Weather Roundup
Issued by NWS

Home | Current Version | Previous Version | Graphics & Text | Print | Product List | Glossary Off
Versions: 1 2 3 4 5 6 7 8 9 10 11 12 13 14 15 16 17 18 19 20 21 22 23 24 25 26 27 28 29 30 31 32 33 34 35 36 37 38 39 40 41 42 43 44 45 46 47 48 49 50

608
ASUS43 KLMK 100810
RWRKY
KENTUCKY REGIONAL WEATHER ROUNDUP
NATIONAL WEATHER SERVICE LOUISVILLE KY
300 AM EST SAT DEC 10 2016

NOTE "FAIR" INDICATES FEW OR NO CLOUDS BELOW 12,000 FEET
WITH NO SIGNIFICANT WEATHER AND/OR OBSTRUCTIONS TO VISIBILITY.

KYZ001>023-026-027-061>063-070>075-100900-
WESTERN AND SOUTH CENTRAL KENTUCKY

CITY           SKY/WX    TMP DP  RH WIND       PRES   REMARKS
PADUCAH        CLEAR     18  13  80 CALM      30.59R
HENDERSON      CLEAR     16  10  79 CALM      30.60S
OWENSBORO      CLEAR     17  14  88 CALM      30.60S
HOPKINSVILLE   CLEAR     21  16  81 CALM      30.58S
BOWLING GREEN  CLEAR     18  14  84 CALM      30.59F
GLASGOW        CLEAR     16  15  94 CALM      30.58S
$$

KYZ024-025-028>034-038-045-046-053-100900-
NORTH CENTRAL KENTUCKY

CITY           SKY/WX    TMP DP  RH WIND       PRES   REMARKS
LOUISVILLE/SDF CLOUDY    25  13  60 SW5       30.58R WCI  19
LOUISVILLE/LOU CLOUDY    25  14  63 CALM      30.59R
FORT KNOX      PTCLDY    15  12  88 CALM      30.55R
$$

KYZ035>037-039>044-047>052-055>060-089>105-100900-
NORTHEAST KENTUCKY

CITY           SKY/WX    TMP DP  RH WIND       PRES   REMARKS
LEXINGTON      CLOUDY    22  15  75 W3        30.54F
COVINGTON      MOCLDY    19  15  84 SW5       30.53R WCI  12
FRANKFORT      CLOUDY    19  13  77 SW5       30.55S WCI  12
$$

KYZ054-064>069-076>088-106>120-100900-
SOUTHEAST KENTUCKY

CITY           SKY/WX    TMP DP  RH WIND       PRES   REMARKS
JACKSON        CLEAR     18  13  80 CALM      30.51R
LONDON         CLEAR     15  12  88 CALM      30.52F
SOMERSET       PTCLDY    16  16 100 CALM      30.57S
MIDDLESBORO    CLEAR     17  15  93 CALM      30.55R
MONTICELLO     SUNNY     11   8  88 W9        30.57R WCI  -2
$$





USA.gov is the U.S. government's official web portal to all federal, state and local government web resources and services.